Printer-friendly version

IAU Minor Planet Center

Minor Planet Center

MPEC 2007-F10 : 2007 EF88

The following Minor Planet Electronic Circular may be linked-to from your own Web pages, but must not otherwise be redistributed electronically.


Read MPEC 2007-F09 Read MPEC 2007-F11


M.P.E.C. 2007-F10                                Issued 2007 Mar. 16, 19:15 UT

     The Minor Planet Electronic Circulars contain information on unusual
         minor planets and routine data on comets.  They are published
   on behalf of Commission 20 of the International Astronomical Union by the
          Minor Planet Center, Smithsonian Astrophysical Observatory,
                          Cambridge, MA 02138, U.S.A.

             Prepared using the Tamkin Foundation Computer Network

                              MPC@CFA.HARVARD.EDU
          URL http://cfa-www.harvard.edu/iau/mpc.html  ISSN 1523-6714

                                   2007 EF88

Observations:
     K07E88F* C2007 03 13.22139 09 00 20.44 +15 30 34.0          21.4 V EF010G96
     K07E88F  C2007 03 13.22918 09 00 23.54 +15 30 42.6          21.3 V EF010G96
     K07E88F  C2007 03 13.23694 09 00 26.64 +15 30 50.1          21.3 V EF010G96
     K07E88F  C2007 03 13.24477 09 00 29.77 +15 30 58.7          21.7 V EF010G96
     K07E88F  C2007 03 13.27690 09 00 42.37 +15 31 31.8          22.5 V EF010G96
     K07E88F  C2007 03 13.27778 09 00 42.91 +15 31 32.9          21.0 V EF010G96
     K07E88F  C2007 03 13.27866 09 00 43.30 +15 31 33.7          20.4 V EF010G96
     K07E88F  C2007 03 13.27954 09 00 43.70 +15 31 34.5          20.8 V EF010G96
     K07E88F  C2007 03 14.22625 09 07 12.39 +15 47 26.3          22.2 V EF010G96
     K07E88F  C2007 03 14.23072 09 07 14.23 +15 47 30.6          21.4 V EF010G96
     K07E88F  C2007 03 14.23521 09 07 15.96 +15 47 34.5          20.6 V EF010G96
     K07E88F  C2007 03 14.23968 09 07 17.68 +15 47 39.0          20.8 V EF010G96
     K07E88F  C2007 03 14.28895 09 07 36.82 +15 48 24.6          21.3 V EF010G96
     K07E88F  C2007 03 14.28983 09 07 37.15 +15 48 25.4          21.1 V EF010G96
     K07E88F tC2007 03 15.19087 09 13 38.20 +16 01 57.7          21.7 V EF010291
     K07E88F tC2007 03 15.19873 09 13 41.34 +16 02 05.0          21.4 V EF010291
     K07E88F  C2007 03 15.20424 09 13 43.28 +16 02 08.9          22.1 V EF010G96
     K07E88F  C2007 03 15.20512 09 13 43.60 +16 02 10.0          21.0 V EF010G96
     K07E88F  C2007 03 15.20599 09 13 43.82 +16 02 10.1          20.5 V EF010G96
     K07E88F  C2007 03 15.20689 09 13 44.29 +16 02 11.5          20.9 V EF010G96
     K07E88F 5C2007 03 15.22257 09 13 50.55 +16 02 24.3          21.5 R EF010673
     K07E88F 5C2007 03 15.22616 09 13 51.83 +16 02 26.8                 EF010673
     K07E88F 5C2007 03 15.23403 09 13 54.81 +16 02 33.0                 EF010673
     K07E88F 5C2007 03 15.23970 09 13 57.04 +16 02 37.9                 EF010673
     K07E88F 5C2007 03 16.14799 09 19 51.84 +16 14 48.8          21.6 R EF010673
     K07E88F 5C2007 03 16.16887 09 19 58.77 +16 15 02.3                 EF010673
     K07E88F 5C2007 03 16.17600 09 20 01.45 +16 15 08.3                 EF010673
     K07E88F  C2007 03 16.17610 09 20 00.45 +16 15 05.6          21.5 R EF010734
     K07E88F  C2007 03 16.18651 09 20 04.43 +16 15 13.7          21.8 R EF010734
     K07E88F 5C2007 03 16.18662 09 20 05.36 +16 15 16.6                 EF010673
     K07E88F  C2007 03 16.21231 09 20 13.82 +16 15 32.9          21.6 R EF010734
     K07E88F  C2007 03 16.21462 09 20 15.28 +16 15 38.9          21.4 V EF010G96
     K07E88F  C2007 03 16.21550 09 20 15.57 +16 15 39.6          21.4 V EF010G96
     K07E88F  C2007 03 16.21638 09 20 15.97 +16 15 40.6          21.8 V EF010G96
     K07E88F  C2007 03 16.21726 09 20 16.26 +16 15 41.1          21.2 V EF010G96
     K07E88F HC2007 03 16.30358 09 20 47.82 +16 16 43.9                 EF010291
     K07E88F HC2007 03 16.30845 09 20 49.70 +16 16 48.7                 EF010291
     K07E88F HC2007 03 16.31251 09 20 51.26 +16 16 50.5                 EF010291

Observer details:
291 LPL/Spacewatch II.  Observers T. H. Bressi, J. V. Scotti.  1.8-m f/2.7
    reflector + CCD.
673 Table Mountain Observatory, Wrightwood.  Observers J. Young, D. Mayes.
    0.6-m reflector + CCD, 0.61-m f/16 Cassegrain + CCD.
734 Farpoint Observatory.  Observer D. Tibbets.  Measurer G. Hug.  0.7-m
    reflector + CCD.
G96 Mt. Lemmon Survey.  Observers R. A. Kowalski, A. R. Gibbs.  Measurers
    E. C. Beshore, E. J. Christensen, G. J. Garradd, A. R. Gibbs, A. D. Grauer,
    R. E. Hill, R. A. Kowalski, S. M. Larson, R. H. McNaught.  1.5-m reflector
    + CCD.

Orbital elements:
2007 EF88                                                Earth MOID = 0.1050 AU
Epoch 2007 Apr. 10.0 TT = JDT 2454200.5                 MPC
M  15.42331              (2000.0)            P               Q
n   0.25342386     Peri.  322.79439     -0.65645776     -0.75394671
a   2.4730774      Node   168.16539     +0.71816896     -0.63477958
e   0.5679410      Incl.    7.01616     +0.23086047     -0.16917223
P   3.89           H   23.3           G   0.15           U   8
Residuals in seconds of arc
070313 G96  0.2-  0.1-    070314 G96  0.2+  0.1-    070316 673  0.7+  0.3+
070313 G96  0.2-  0.3+    070315 291  1.1-  0.4-    070316 734  0.7-  0.1+
070313 G96  0.1-  0.3-    070315 291  1.5+  0.1+    070316 734  1.5+  0.4+
070313 G96  0.1+  0.1+    070315 G96  0.0   0.3-    070316 673  0.8+  0.4+
070313 G96 (3.0-  0.1-)   070315 G96  0.2-  0.0     070316 734  0.0   0.4+
070313 G96  0.3-  0.1+    070315 G96  1.7-  0.6-    070316 G96  0.0   0.3-
070313 G96  0.3+  0.0     070315 G96  0.2+  0.0     070316 G96  0.5-  0.3-
070313 G96  1.0+  0.1-    070315 673  0.6+  0.9+    070316 G96  0.7+  0.1+
070314 G96  1.0-  0.0     070315 673  0.4-  0.4+    070316 G96  0.2+  0.1-
070314 G96  0.5+  0.1+    070315 673  0.3-  0.1-    070316 291  1.2-  0.6-
070314 G96  0.4+  0.2-    070315 673  1.1+  0.0     070316 291  0.1+  0.7+
070314 G96  0.2+  0.1+    070316 673(11.0+  2.8+)   070316 291  1.0+  0.3-
070314 G96  0.4+  0.1-    070316 673  0.1-  0.1-

Ephemeris:
2007 EF88                a,e,i = 2.47, 0.57, 7                   q = 1.0685
Date    TT    R. A. (2000) Decl.     Delta      r     Elong.  Phase     V
2007 03 11    08 44.53   +14 47.0    0.179    1.135   139.5    34.6    21.3
2007 03 16    09 18.88   +16 13.1    0.198    1.157   142.2    31.8    21.4
2007 03 21    09 48.61   +16 58.4    0.222    1.182   143.6    30.0    21.7
2007 03 26    10 13.84   +17 11.8    0.250    1.208   143.9    29.1    22.0
2007 03 31    10 35.13   +17 02.0    0.282    1.237   143.6    28.7    22.3

Kyle E. Smalley              (C) Copyright 2007 MPC           M.P.E.C. 2007-F10

Read MPEC 2007-F09 Read MPEC 2007-F11


Our Web policy. Index to the CBAT/MPC/ICQ pages.


Valid HTML 4.01!